{"data":{"norad_id":68435,"epoch":"2026-05-25T03:35:07.068768Z","epoch_age_seconds":68920,"freshness":"FRESH","line1":"1 68435U 26067V   26145.14938737  .00002749  00000+0  14006-3 0  9992","line2":"2 68435  97.4532 103.9289 0003758 119.1328 241.0282 15.17610501  8440","mean_motion":15.17610501,"eccentricity":0.0003758,"inclination_deg":97.4532,"raan_deg":103.9289,"arg_perigee_deg":119.1328,"mean_anomaly_deg":241.0282,"bstar":0.00014006,"rev_number":844,"period_min":94.886006590699,"perigee_km":510.4749514015,"apogee_km":515.6543785729,"semimajor_km":6891.2016649872,"source":"CELESTRAK","updated_at":"2026-05-25T13:38:07.815968Z"}}